TimeCEST,TemperatureF,Dew PointF,Humidity,Sea Level PressureIn,VisibilityMPH,Wind Direction,Wind SpeedMPH,Gust SpeedMPH,PrecipitationIn,Events,Conditions,WindDirDegrees,DateUTC
12:00 AM,49,43,73,30.04,22,South,8.9,,,,Scattered Clouds,180,2013-05-12 22:00:00
12:20 AM,50.0,42.8,76,30.01,-9999.0,South,8.1,-,N/A,,Clear,180,2013-05-12 22:20:00
12:50 AM,50.0,41.0,71,30.04,6.2,SW,10.4,-,N/A,,Mostly Cloudy,220,2013-05-12 22:50:00
1:00 AM,49,42,67,30.04,19,SW,11.2,,,,Partly Cloudy,220,2013-05-12 23:00:00
1:20 AM,50.0,41.0,71,30.01,6.2,SW,13.8,-,N/A,,Mostly Cloudy,220,2013-05-12 23:20:00
1:50 AM,48.2,42.8,82,30.01,6.2,SSW,11.5,-,N/A,Rain,Light Rain,210,2013-05-12 23:50:00
2:00 AM,48,42,74,30.02,16,SSW,11.2,,,Rain,Light Rain,210,2013-05-13 00:00:00
2:20 AM,48.2,42.8,82,30.01,6.2,South,8.1,-,N/A,Rain,Rain,190,2013-05-13 00:20:00
2:50 AM,48.2,42.8,82,29.98,6.2,South,9.2,-,N/A,Rain,Rain,190,2013-05-13 00:50:00
3:00 AM,47,44,84,30.01,12,South,8.9,,,Rain,Rain,190,2013-05-13 01:00:00
3:20 AM,48.2,44.6,87,29.98,6.2,South,12.7,-,N/A,Rain,Rain,170,2013-05-13 01:20:00
3:50 AM,48.2,44.6,87,29.98,6.2,South,11.5,-,N/A,Rain,Rain,170,2013-05-13 01:50:00
4:00 AM,47,45,88,29.98,9,South,11.2,,,Rain,Rain,170,2013-05-13 02:00:00
4:20 AM,46.4,44.6,93,29.95,3.7,South,12.7,-,N/A,Rain,Light Rain,170,2013-05-13 02:20:00
4:50 AM,46.4,44.6,93,29.95,3.1,South,13.8,-,N/A,Rain,Light Rain,170,2013-05-13 02:50:00
5:20 AM,46.4,46.4,100,29.95,-9999.0,South,11.5,-,N/A,Rain,Light Rain,170,2013-05-13 03:20:00
5:50 AM,48.2,46.4,93,29.92,-9999.0,South,11.5,-,N/A,Rain,Light Rain,180,2013-05-13 03:50:00
6:00 AM,47,46,96,29.95,3,South,11.2,,,Rain,Light Rain,180,2013-05-13 04:00:00
6:20 AM,48.2,46.4,93,29.92,2.8,South,10.4,-,N/A,,Light Drizzle,180,2013-05-13 04:20:00
6:50 AM,48.2,46.4,93,29.92,2.8,South,11.5,-,N/A,,Light Drizzle,180,2013-05-13 04:50:00
7:00 AM,48,47,96,29.94,3,South,11.2,,,Rain,Light Drizzle,180,2013-05-13 05:00:00
7:20 AM,50.0,48.2,94,29.92,3.1,SSW,10.4,-,N/A,Rain,Light Rain,200,2013-05-13 05:20:00
7:50 AM,50.0,48.2,94,29.92,3.1,SSW,12.7,-,N/A,,Light Drizzle,210,2013-05-13 05:50:00
8:00 AM,49,48,97,29.93,3,SSW,13.4,,,Rain,Light Drizzle,210,2013-05-13 06:00:00
8:20 AM,50.0,48.2,94,29.92,3.1,SW,13.8,-,N/A,,Mostly Cloudy,220,2013-05-13 06:20:00
8:50 AM,50.0,50.0,100,29.92,3.7,SSW,13.8,-,N/A,,Mostly Cloudy,210,2013-05-13 06:50:00
9:00 AM,51,49,92,29.93,4,SSW,13.4,,,Rain,Light Drizzle,210,2013-05-13 07:00:00
9:20 AM,51.8,50.0,94,29.92,5.6,SW,12.7,-,N/A,,Mostly Cloudy,220,2013-05-13 07:20:00
9:50 AM,51.8,50.0,94,29.92,5.0,SW,13.8,-,N/A,,Mostly Cloudy,220,2013-05-13 07:50:00
10:00 AM,52,50,92,29.94,5,SW,13.4,,,Rain,Light Drizzle,220,2013-05-13 08:00:00
10:20 AM,51.8,50.0,94,29.92,6.2,SW,15.0,-,N/A,,Light Drizzle,230,2013-05-13 08:20:00
10:50 AM,53.6,50.0,88,29.92,3.7,SW,16.1,-,N/A,,Light Drizzle,230,2013-05-13 08:50:00
11:20 AM,53.6,50.0,88,29.92,6.2,SW,19.6,-,N/A,,Mostly Cloudy,230,2013-05-13 09:20:00
11:50 AM,53.6,50.0,88,29.92,6.2,SW,15.0,-,N/A,Rain,Light Rain,230,2013-05-13 09:50:00
12:00 PM,53,50,85,29.94,6,SW,13.4,,,Rain,Light Rain,230,2013-05-13 10:00:00
12:20 PM,53.6,50.0,88,29.92,6.2,SW,13.8,-,N/A,Rain,Light Drizzle,230,2013-05-13 10:20:00
12:50 PM,53.6,51.8,94,29.92,6.2,SW,15.0,-,N/A,Rain,Light Drizzle,230,2013-05-13 10:50:00
1:00 PM,53,51,91,29.94,8,SW,15.7,,,Rain,Light Rain,230,2013-05-13 11:00:00
1:20 PM,53.6,51.8,94,29.92,6.2,West,8.1,-,N/A,,Mostly Cloudy,260,2013-05-13 11:20:00
1:50 PM,55.4,51.8,88,29.92,6.2,WSW,15.0,-,N/A,Rain,Light Rain,250,2013-05-13 11:50:00
2:00 PM,54,50,83,29.93,9,WSW,15.7,,,Rain,Light Rain,250,2013-05-13 12:00:00
2:20 PM,57.2,51.8,82,29.92,6.2,WSW,11.5,-,N/A,,Mostly Cloudy,240,2013-05-13 12:20:00
2:50 PM,55.4,50.0,82,29.92,6.2,SW,19.6,-,N/A,Rain,Light Rain,220,2013-05-13 12:50:00
3:00 PM,56,49,71,29.92,22,SW,20.1,,,Rain,Light Rain,220,2013-05-13 13:00:00
3:20 PM,57.2,48.2,72,29.92,6.2,SW,17.3,28.8,N/A,,Scattered Clouds,230,2013-05-13 13:20:00
3:50 PM,59.0,48.2,67,29.89,6.2,WSW,13.8,-,N/A,,Scattered Clouds,250,2013-05-13 13:50:00
4:00 PM,58,47,57,29.91,25,WSW,13.4,,,Rain,Light Rain,250,2013-05-13 14:00:00
4:20 PM,59.0,48.2,67,29.89,6.2,West,12.7,-,N/A,,Scattered Clouds,260,2013-05-13 14:20:00
4:50 PM,59.0,46.4,63,29.89,6.2,West,12.7,-,N/A,,Scattered Clouds,260,2013-05-13 14:50:00
5:20 PM,57.2,46.4,67,29.89,6.2,WSW,11.5,-,N/A,,Scattered Clouds,250,2013-05-13 15:20:00
5:50 PM,59.0,48.2,67,29.89,6.2,WSW,15.0,-,N/A,,Mostly Cloudy,240,2013-05-13 15:50:00
6:00 PM,59,47,55,29.89,25,WSW,15.7,,,Rain,Light Rain,240,2013-05-13 16:00:00
6:20 PM,59.0,46.4,63,29.89,6.2,SW,16.1,-,N/A,,Mostly Cloudy,230,2013-05-13 16:20:00
6:50 PM,59.0,44.6,59,29.89,6.2,WSW,15.0,-,N/A,,Mostly Cloudy,250,2013-05-13 16:50:00
7:20 PM,57.2,39.2,51,29.89,6.2,West,17.3,-,N/A,,Mostly Cloudy,260,2013-05-13 17:20:00
7:50 PM,57.2,39.2,51,29.89,6.2,West,12.7,-,N/A,,Mostly Cloudy,260,2013-05-13 17:50:00
8:00 PM,56,39,42,29.90,22,West,13.4,,,,Partly Cloudy,260,2013-05-13 18:00:00
8:20 PM,55.4,41.0,58,29.89,6.2,WSW,8.1,-,N/A,,Mostly Cloudy,240,2013-05-13 18:20:00
8:50 PM,55.4,41.0,58,29.89,6.2,West,8.1,-,N/A,,Mostly Cloudy,260,2013-05-13 18:50:00
9:00 PM,56,41,46,29.90,22,West,8.9,,,,Scattered Clouds,260,2013-05-13 19:00:00
9:20 PM,53.6,42.8,67,29.89,6.2,WSW,6.9,-,N/A,,Mostly Cloudy,240,2013-05-13 19:20:00
9:50 PM,51.8,42.8,71,29.89,6.2,SW,8.1,-,N/A,,Mostly Cloudy,220,2013-05-13 19:50:00
10:20 PM,53.6,42.8,67,29.89,6.2,SSW,10.4,-,N/A,,Mostly Cloudy,200,2013-05-13 20:20:00
10:50 PM,53.6,44.6,72,29.89,6.2,SW,11.5,-,N/A,,Mostly Cloudy,220,2013-05-13 20:50:00
11:20 PM,53.6,44.6,72,29.89,6.2,SW,11.5,-,N/A,,Mostly Cloudy,230,2013-05-13 21:20:00
11:50 PM,53.6,41.0,62,29.89,6.2,WSW,11.5,-,N/A,,Mostly Cloudy,240,2013-05-13 21:50:00